Location: Peebles
(55.6412°N, 3.1714°W)
Time: 18:31:30
(UTC+01:00)

USA 238 DEB - Pass Details

Date: 27 January 2022
Orbit: 969 x 1243 km, 63.4° (Epoch: 04 May)

Event Time Altitude Azimuth Distance (km) Brightness Sun altitude
Rises 22:15:18 0° 306° (NW) 3,884 7.4 -45.3°
Reaches altitude 10° 22:17:54 10° 308° (NW) 2,963 6.6 -45.5°
Enters shadow 22:20:35 26° 310° (NW) 2,061 5.5 -45.8°
